| time (UTC) | temp C | wind direction | speed KPH | gust KPH | rain 1hr cm | rain 24hr cm | rain mn cm | humidity % | barometer mb |
| 20260510071029 | 9 | 202 | 3.2 | 9.7 | 0.00 | 0.48 | 0.20 | 88 | 1007.3 |
| 20260510070528 | 9 | 187 | 3.2 | 9.7 | 0.00 | 0.48 | 0.20 | 88 | 1007.2 |
| 20260510070040 | 9 | 210 | 1.6 | 6.4 | 0.00 | 0.48 | 0.20 | 88 | 1007.3 |
| 20260510065528 | 9 | 206 | 1.6 | 6.4 | 0.00 | 0.48 | 0.20 | 88 | 1007.4 |
| 20260510065029 | 9 | 219 | 3.2 | 11.3 | 0.00 | 0.48 | 0.20 | 88 | 1007.4 |
| 20260510064527 | 9 | 234 | 4.8 | 16.1 | 0.00 | 0.48 | 0.20 | 88 | 1007.5 |
| 20260510064026 | 9 | 204 | 6.4 | 16.1 | 0.00 | 0.48 | 0.20 | 88 | 1007.5 |
| 20260510063526 | 9 | 222 | 4.8 | 16.1 | 0.00 | 0.48 | 0.20 | 88 | 1007.5 |
| 20260510063033 | 9 | 155 | 4.8 | 12.9 | 0.03 | 0.48 | 0.20 | 88 | 1007.3 |
| 20260510062525 | 9 | 190 | 3.2 | 14.5 | 0.05 | 0.48 | 0.20 | 88 | 1007.5 |
| 20260510062024 | 9 | 179 | 4.8 | 12.9 | 0.05 | 0.48 | 0.20 | 88 | 1007.5 |
| 20260510061523 | 9 | 194 | 3.2 | 9.7 | 0.08 | 0.48 | 0.20 | 87 | 1007.5 |
| 20260510061026 | 9 | 208 | 1.6 | 12.9 | 0.10 | 0.48 | 0.20 | 87 | 1007.8 |
| 20260510060524 | 9 | 206 | 6.4 | 12.9 | 0.13 | 0.48 | 0.20 | 87 | 1007.8 |
| 20260510060035 | 9 | 234 | 1.6 | 14.5 | 0.13 | 0.48 | 0.20 | 87 | 1007.7 |
| 20260510055530 | 9 | 207 | 8.0 | 22.5 | 0.13 | 0.48 | 0.20 | 87 | 1007.7 |
| 20260510055022 | 9 | 178 | 9.7 | 22.5 | 0.13 | 0.48 | 0.20 | 87 | 1007.6 |
| 20260510054523 | 9 | 203 | 6.4 | 17.7 | 0.13 | 0.48 | 0.20 | 88 | 1007.7 |
| 20260510054021 | 9 | 142 | 11.3 | 17.7 | 0.15 | 0.48 | 0.20 | 88 | 1007.6 |
| 20260510053520 | 9 | 136 | 8.0 | 14.5 | 0.18 | 0.48 | 0.20 | 88 | 1007.8 |
| 20260510053019 | 9 | 193 | 6.4 | 14.5 | 0.18 | 0.46 | 0.18 | 88 | 1008.3 |
| 20260510052519 | 9 | 192 | 4.8 | 14.5 | 0.15 | 0.43 | 0.15 | 88 | 1008.4 |
| 20260510052018 | 9 | 182 | 1.6 | 6.4 | 0.13 | 0.41 | 0.13 | 89 | 1008.5 |
| 20260510051517 | 9 | 206 | 1.6 | 6.4 | 0.13 | 0.41 | 0.13 | 88 | 1008.8 |
| 20260510051016 | 10 | 251 | 0.0 | 3.2 | 0.10 | 0.38 | 0.10 | 88 | 1008.9 |
| 20260510050516 | 10 | 251 | 0.0 | 4.8 | 0.08 | 0.36 | 0.08 | 88 | 1008.8 |
| 20260510050018 | 10 | 253 | 0.0 | 3.2 | 0.08 | 0.36 | 0.08 | 88 | 1008.7 |
| 20260510045518 | 10 | 254 | 0.0 | 4.8 | 0.08 | 0.36 | 0.08 | 88 | 1008.6 |
| 20260510045013 | 10 | 255 | 1.6 | 4.8 | 0.08 | 0.36 | 0.08 | 87 | 1008.6 |
| 20260510044513 | 10 | 273 | 0.0 | 8.0 | 0.08 | 0.36 | 0.08 | 87 | 1008.6 |
| 20260510044018 | 10 | 277 | 1.6 | 19.3 | 0.05 | 0.33 | 0.05 | 87 | 1008.5 |
| 20260510043516 | 10 | 286 | 3.2 | 19.3 | 0.03 | 0.30 | 0.03 | 86 | 1008.5 |
| 20260510043010 | 10 | 284 | 9.7 | 17.7 | 0.00 | 0.28 | 0.00 | 86 | 1008.5 |
| 20260510042512 | 10 | 313 | 3.2 | 8.0 | 0.00 | 0.28 | 0.00 | 86 | 1008.4 |
| 20260510042008 | 10 | 274 | 3.2 | 9.7 | 0.00 | 0.28 | 0.00 | 86 | 1008.1 |
| 20260510041508 | 10 | 214 | 1.6 | 9.7 | 0.00 | 0.28 | 0.00 | 86 | 1008.0 |
| 20260510041007 | 10 | 241 | 1.6 | 8.0 | 0.00 | 0.28 | 0.00 | 86 | 1007.9 |
| 20260510040505 | 10 | 264 | 1.6 | 9.7 | 0.00 | 0.28 | 0.00 | 86 | 1007.8 |
| 20260510040010 | 10 | 250 | 1.6 | 12.9 | 0.00 | 0.28 | 0.00 | 86 | 1007.7 |
| 20260510035502 | 10 | 203 | 4.8 | 17.7 | 0.00 | 0.28 | 0.28 | 86 | 1007.7 |
| 20260510035003 | 10 | 260 | 6.4 | 17.7 | 0.00 | 0.28 | 0.28 | 86 | 1007.4 |
| 20260510034502 | 10 | 193 | 8.0 | 19.3 | 0.00 | 0.28 | 0.28 | 85 | 1007.4 |
| 20260510034003 | 10 | 183 | 6.4 | 19.3 | 0.00 | 0.28 | 0.28 | 85 | 1007.4 |
| 20260510033501 | 10 | 184 | 4.8 | 16.1 | 0.00 | 0.28 | 0.28 | 85 | 1007.3 |
| 20260510033002 | 10 | 196 | 4.8 | 14.5 | 0.00 | 0.28 | 0.28 | 85 | 1007.3 |
| 20260510032502 | 10 | 173 | 6.4 | 14.5 | 0.00 | 0.28 | 0.28 | 84 | 1007.2 |
| 20260510032003 | 10 | 191 | 4.8 | 16.1 | 0.00 | 0.28 | 0.28 | 84 | 1007.4 |
| 20260510031501 | 10 | 170 | 4.8 | 14.5 | 0.00 | 0.28 | 0.28 | 84 | 1007.3 |
| 20260510031001 | 10 | 171 | 3.2 | 11.3 | 0.00 | 0.28 | 0.28 | 84 | 1007.5 |
| 20260510030500 | 10 | 206 | 0.0 | 19.3 | 0.00 | 0.28 | 0.28 | 84 | 1007.5 |
| 20260510025600 | 10 | 212 | 3.2 | 11.3 | 0.00 | 0.28 | 0.28 | 84 | 1007.6 |
| 20260510025102 | 10 | 199 | 6.4 | 11.3 | 0.00 | 0.28 | 0.28 | 84 | 1007.5 |
| 20260510024602 | 10 | 155 | 4.8 | 16.1 | 0.00 | 0.28 | 0.28 | 84 | 1007.2 |
| 20260510024100 | 10 | 221 | 9.7 | 16.1 | 0.00 | 0.28 | 0.28 | 84 | 1007.1 |
| 20260510023559 | 10 | 156 | 6.4 | 14.5 | 0.00 | 0.28 | 0.28 | 84 | 1007.1 |
| 20260510023058 | 10 | 166 | 8.0 | 19.3 | 0.00 | 0.28 | 0.28 | 84 | 1007.1 |
| 20260510022559 | 10 | 167 | 11.3 | 19.3 | 0.00 | 0.28 | 0.28 | 84 | 1007.1 |
| 20260510022100 | 10 | 142 | 9.7 | 19.3 | 0.00 | 0.28 | 0.28 | 85 | 1007.0 |
| 20260510021646 | 10 | 145 | 4.8 | 12.9 | 0.00 | 0.28 | 0.28 | 85 | 1007.1 |
| 20260510021058 | 10 | 184 | 6.4 | 14.5 | 0.00 | 0.28 | 0.28 | 85 | 1007.1 |
| 20260510020557 | 10 | 166 | 6.4 | 12.9 | 0.00 | 0.28 | 0.28 | 85 | 1007.0 |
| 20260510020100 | 10 | 142 | 6.4 | 14.5 | 0.00 | 0.28 | 0.28 | 85 | 1007.1 |
| 20260510015557 | 10 | 150 | 8.0 | 14.5 | 0.00 | 0.28 | 0.28 | 85 | 1007.2 |
| 20260510015058 | 10 | 148 | 4.8 | 11.3 | 0.00 | 0.28 | 0.28 | 86 | 1007.5 |
| 20260510014600 | 10 | 150 | 3.2 | 11.3 | 0.00 | 0.28 | 0.28 | 86 | 1007.4 |
| 20260510014056 | 10 | 142 | 6.4 | 11.3 | 0.00 | 0.28 | 0.28 | 86 | 1007.3 |
| 20260510013556 | 10 | 157 | 3.2 | 14.5 | 0.00 | 0.28 | 0.28 | 86 | 1007.3 |
| 20260510013102 | 10 | 142 | 6.4 | 14.5 | 0.00 | 0.28 | 0.28 | 86 | 1007.1 |
| 20260510012556 | 10 | 154 | 4.8 | 9.7 | 0.00 | 0.28 | 0.28 | 86 | 1007.0 |
| 20260510012055 | 10 | 133 | 4.8 | 8.0 | 0.00 | 0.28 | 0.28 | 85 | 1006.9 |
| 20260510011555 | 10 | 150 | 4.8 | 11.3 | 0.00 | 0.28 | 0.28 | 85 | 1006.9 |
| 20260510011054 | 10 | 140 | 4.8 | 11.3 | 0.00 | 0.28 | 0.28 | 85 | 1007.0 |
| 20260510010554 | 10 | 147 | 4.8 | 11.3 | 0.00 | 0.28 | 0.28 | 85 | 1007.0 |
| 20260510010059 | 10 | 138 | 4.8 | 11.3 | 0.00 | 0.28 | 0.28 | 85 | 1007.1 |
| 20260510005554 | 10 | 169 | 3.2 | 12.9 | 0.00 | 0.28 | 0.28 | 85 | 1007.1 |
| 20260510005054 | 10 | 169 | 6.4 | 19.3 | 0.00 | 0.28 | 0.28 | 85 | 1006.9 |
| 20260510004554 | 10 | 132 | 6.4 | 19.3 | 0.00 | 0.28 | 0.28 | 85 | 1006.9 |
| 20260510004054 | 10 | 130 | 6.4 | 14.5 | 0.00 | 0.28 | 0.28 | 85 | 1006.7 |
| 20260510003554 | 10 | 126 | 4.8 | 14.5 | 0.00 | 0.28 | 0.28 | 85 | 1006.7 |
| 20260510003054 | 10 | 146 | 3.2 | 11.3 | 0.00 | 0.28 | 0.28 | 85 | 1006.7 |
| 20260510002557 | 10 | 146 | 4.8 | 11.3 | 0.00 | 0.28 | 0.28 | 85 | 1006.6 |
| 20260510002053 | 10 | 136 | 4.8 | 12.9 | 0.00 | 0.28 | 0.28 | 85 | 1006.6 |
| 20260510001553 | 10 | 156 | 6.4 | 12.9 | 0.00 | 0.28 | 0.28 | 85 | 1006.7 |
| 20260510001053 | 10 | 160 | 4.8 | 19.3 | 0.00 | 0.28 | 0.28 | 85 | 1006.5 |
| 20260510000556 | 10 | 188 | 8.0 | 19.3 | 0.00 | 0.28 | 0.28 | 85 | 1006.3 |
| 20260510000053 | 10 | 155 | 9.7 | 16.1 | 0.00 | 0.28 | 0.28 | 85 | 1006.4 |
| 20260509235552 | 10 | 134 | 6.4 | 12.9 | 0.00 | 0.28 | 0.28 | 85 | 1006.6 |
| 20260509235053 | 10 | 142 | 6.4 | 11.3 | 0.00 | 0.28 | 0.28 | 85 | 1006.7 |
| 20260509234552 | 10 | 193 | 4.8 | 11.3 | 0.00 | 0.28 | 0.28 | 85 | 1006.8 |
| 20260509234051 | 10 | 183 | 4.8 | 16.1 | 0.00 | 0.28 | 0.28 | 85 | 1006.7 |
| 20260509233551 | 10 | 178 | 8.0 | 16.1 | 0.00 | 0.28 | 0.28 | 84 | 1006.6 |
| 20260509233051 | 10 | 169 | 4.8 | 9.7 | 0.00 | 0.28 | 0.28 | 85 | 1006.6 |
| 20260509232551 | 10 | 158 | 3.2 | 12.9 | 0.00 | 0.28 | 0.28 | 85 | 1006.6 |
| 20260509232051 | 10 | 202 | 6.4 | 16.1 | 0.00 | 0.28 | 0.28 | 84 | 1006.7 |
| 20260509231553 | 10 | 180 | 8.0 | 16.1 | 0.00 | 0.28 | 0.28 | 84 | 1006.6 |
| 20260509231050 | 10 | 202 | 6.4 | 12.9 | 0.00 | 0.28 | 0.28 | 84 | 1006.7 |
| 20260509230552 | 10 | 206 | 4.8 | 12.9 | 0.00 | 0.28 | 0.28 | 84 | 1006.6 |
| 20260509230053 | 10 | 207 | 3.2 | 16.1 | 0.00 | 0.28 | 0.28 | 84 | 1006.6 |
| 20260509225550 | 10 | 179 | 6.4 | 17.7 | 0.00 | 0.28 | 0.28 | 84 | 1006.5 |
| 20260509225049 | 10 | 205 | 3.2 | 17.7 | 0.00 | 0.28 | 0.28 | 84 | 1006.5 |
| 20260509224550 | 10 | 188 | 9.7 | 16.1 | 0.00 | 0.28 | 0.28 | 84 | 1006.4 |
| 20260509224050 | 10 | 174 | 3.2 | 16.1 | 0.00 | 0.28 | 0.28 | 84 | 1006.4 |
| 20260509223550 | 10 | 190 | 6.4 | 16.1 | 0.00 | 0.28 | 0.28 | 84 | 1006.3 |
| 20260509223053 | 10 | 225 | 8.0 | 17.7 | 0.00 | 0.28 | 0.28 | 84 | 1006.3 |
| 20260509222550 | 10 | 211 | 8.0 | 17.7 | 0.00 | 0.28 | 0.28 | 84 | 1006.3 |
| 20260509222049 | 10 | 209 | 3.2 | 22.5 | 0.00 | 0.28 | 0.28 | 84 | 1006.5 |
| 20260509221549 | 10 | 182 | 8.0 | 22.5 | 0.00 | 0.28 | 0.28 | 84 | 1006.4 |
| 20260509221048 | 10 | 189 | 6.4 | 25.7 | 0.00 | 0.28 | 0.28 | 84 | 1006.4 |
| 20260509220547 | 10 | 186 | 11.3 | 25.7 | 0.00 | 0.28 | 0.28 | 84 | 1006.4 |
| 20260509220050 | 10 | 194 | 6.4 | 17.7 | 0.00 | 0.28 | 0.28 | 84 | 1006.4 |
| 20260509215546 | 10 | 232 | 6.4 | 16.1 | 0.00 | 0.28 | 0.28 | 84 | 1006.5 |
| 20260509215047 | 10 | 182 | 11.3 | 22.5 | 0.00 | 0.28 | 0.28 | 84 | 1006.4 |
| 20260509214547 | 10 | 183 | 8.0 | 17.7 | 0.00 | 0.28 | 0.28 | 84 | 1006.5 |
| 20260509214046 | 10 | 188 | 6.4 | 19.3 | 0.00 | 0.28 | 0.28 | 84 | 1006.5 |
| 20260509213546 | 10 | 180 | 4.8 | 19.3 | 0.00 | 0.28 | 0.28 | 84 | 1006.5 |
| 20260509213102 | 10 | 222 | 9.7 | 16.1 | 0.00 | 0.28 | 0.28 | 84 | 1006.4 |
| 20260509212544 | 10 | 191 | 6.4 | 16.1 | 0.00 | 0.28 | 0.28 | 84 | 1006.5 |
| 20260509212042 | 10 | 150 | 6.4 | 16.1 | 0.00 | 0.28 | 0.28 | 85 | 1006.6 |
| 20260509211542 | 10 | 213 | 4.8 | 16.1 | 0.00 | 0.28 | 0.28 | 85 | 1006.6 |
| 20260509211042 | 10 | 194 | 4.8 | 20.9 | 0.00 | 0.28 | 0.28 | 85 | 1006.6 |
| 20260509210543 | 10 | 209 | 9.7 | 20.9 | 0.00 | 0.28 | 0.28 | 85 | 1006.7 |
| 20260509210046 | 10 | 214 | 6.4 | 17.7 | 0.00 | 0.28 | 0.28 | 85 | 1006.8 |
| 20260509205544 | 10 | 142 | 8.0 | 17.7 | 0.00 | 0.28 | 0.28 | 85 | 1006.8 |
| 20260509205040 | 10 | 205 | 6.4 | 12.9 | 0.00 | 0.28 | 0.28 | 86 | 1006.8 |
| 20260509204540 | 10 | 224 | 3.2 | 20.9 | 0.00 | 0.28 | 0.28 | 86 | 1007.0 |
| 20260509204038 | 10 | 175 | 9.7 | 20.9 | 0.00 | 0.28 | 0.28 | 86 | 1007.0 |
| 20260509203540 | 10 | 196 | 12.9 | 20.9 | 0.00 | 0.28 | 0.28 | 86 | 1007.0 |
| 20260509203037 | 10 | 193 | 3.2 | 20.9 | 0.00 | 0.28 | 0.28 | 87 | 1007.0 |
| 20260509202541 | 10 | 188 | 11.3 | 20.9 | 0.00 | 0.28 | 0.28 | 87 | 1007.0 |
| 20260509202036 | 10 | 222 | 9.7 | 20.9 | 0.00 | 0.28 | 0.28 | 88 | 1007.1 |
| 20260509201539 | 10 | 172 | 9.7 | 20.9 | 0.00 | 0.28 | 0.28 | 88 | 1007.1 |
| 20260509201034 | 10 | 194 | 8.0 | 19.3 | 0.00 | 0.28 | 0.28 | 88 | 1007.1 |
| 20260509200539 | 10 | 184 | 11.3 | 19.3 | 0.00 | 0.28 | 0.28 | 88 | 1007.1 |
| 20260509200034 | 10 | 193 | 11.3 | 24.1 | 0.00 | 0.28 | 0.28 | 88 | 1007.1 |
| 20260509195531 | 10 | 182 | 8.0 | 24.1 | 0.00 | 0.30 | 0.28 | 88 | 1007.1 |
| 20260509195029 | 10 | 161 | 6.4 | 27.4 | 0.00 | 0.30 | 0.28 | 88 | 1007.2 |
| 20260509194540 | 10 | 187 | 11.3 | 27.4 | 0.00 | 0.30 | 0.28 | 88 | 1007.4 |
| 20260509194026 | 10 | 184 | 9.7 | 27.4 | 0.00 | 0.30 | 0.28 | 88 | 1007.3 |
| 20260509193527 | 10 | 169 | 11.3 | 27.4 | 0.00 | 0.30 | 0.28 | 88 | 1007.5 |
| 20260509193025 | 10 | 200 | 11.3 | 24.1 | 0.00 | 0.30 | 0.28 | 88 | 1007.5 |
| 20260509192522 | 10 | 209 | 12.9 | 24.1 | 0.00 | 0.30 | 0.28 | 88 | 1007.5 |
| 20260509192020 | 10 | 235 | 6.4 | 19.3 | 0.00 | 0.30 | 0.28 | 88 | 1007.6 |
| 20260509191520 | 10 | 205 | 8.0 | 16.1 | 0.00 | 0.30 | 0.28 | 88 | 1007.7 |
| 20260509191023 | 10 | 147 | 8.0 | 16.1 | 0.00 | 0.30 | 0.28 | 87 | 1007.8 |
| 20260509190519 | 10 | 202 | 9.7 | 16.1 | 0.00 | 0.30 | 0.28 | 87 | 1007.7 |
| 20260509190019 | 10 | 187 | 9.7 | 16.1 | 0.00 | 0.30 | 0.28 | 86 | 1007.8 |
| 20260509185516 | 10 | 197 | 11.3 | 16.1 | 0.00 | 0.30 | 0.28 | 86 | 1007.8 |
| 20260509185015 | 10 | 192 | 9.7 | 16.1 | 0.00 | 0.30 | 0.28 | 86 | 1007.8 |
| 20260509184514 | 10 | 194 | 8.0 | 17.7 | 0.00 | 0.30 | 0.28 | 86 | 1007.8 |
| 20260509184013 | 10 | 191 | 9.7 | 17.7 | 0.00 | 0.30 | 0.28 | 85 | 1007.8 |
| 20260509183511 | 10 | 180 | 9.7 | 17.7 | 0.00 | 0.30 | 0.28 | 85 | 1007.9 |
| 20260509183013 | 10 | 150 | 4.8 | 16.1 | 0.00 | 0.30 | 0.28 | 85 | 1007.9 |
| 20260509182508 | 10 | 210 | 3.2 | 16.1 | 0.00 | 0.30 | 0.28 | 85 | 1007.8 |
| 20260509182006 | 10 | 196 | 4.8 | 16.1 | 0.00 | 0.30 | 0.28 | 85 | 1007.7 |
| 20260509181505 | 10 | 188 | 6.4 | 22.5 | 0.00 | 0.30 | 0.28 | 85 | 1007.8 |
| 20260509181005 | 10 | 210 | 8.0 | 22.5 | 0.00 | 0.30 | 0.28 | 86 | 1007.8 |
| 20260509180504 | 10 | 196 | 3.2 | 9.7 | 0.00 | 0.30 | 0.28 | 86 | 1007.8 |
| 20260509180003 | 10 | 207 | 3.2 | 17.7 | 0.00 | 0.30 | 0.28 | 86 | 1007.8 |
| 20260509175502 | 10 | 182 | 9.7 | 17.7 | 0.00 | 0.30 | 0.28 | 86 | 1007.8 |
| 20260509175101 | 10 | 213 | 8.0 | 17.7 | 0.00 | 0.30 | 0.28 | 87 | 1007.7 |
| 20260509174600 | 10 | 208 | 3.2 | 11.3 | 0.00 | 0.30 | 0.28 | 87 | 1007.8 |
| 20260509174058 | 9 | 218 | 3.2 | 17.7 | 0.00 | 0.30 | 0.28 | 87 | 1007.8 |
| 20260509173600 | 9 | 155 | 3.2 | 17.7 | 0.00 | 0.30 | 0.28 | 87 | 1007.7 |
| 20260509173107 | 9 | 208 | 4.8 | 14.5 | 0.00 | 0.30 | 0.28 | 88 | 1007.7 |
| 20260509172557 | 9 | 202 | 6.4 | 14.5 | 0.00 | 0.30 | 0.28 | 88 | 1007.7 |
| 20260509172055 | 9 | 203 | 4.8 | 8.0 | 0.00 | 0.30 | 0.28 | 88 | 1007.8 |
| 20260509171557 | 9 | 197 | 3.2 | 11.3 | 0.00 | 0.30 | 0.28 | 88 | 1007.8 |
| 20260509171053 | 9 | 190 | 6.4 | 11.3 | 0.00 | 0.30 | 0.28 | 88 | 1007.9 |
| 20260509170552 | 9 | 192 | 4.8 | 14.5 | 0.00 | 0.30 | 0.28 | 88 | 1007.9 |
| 20260509170050 | 9 | 186 | 6.4 | 14.5 | 0.00 | 0.30 | 0.28 | 88 | 1008.0 |
| 20260509165549 | 9 | 192 | 4.8 | 12.9 | 0.00 | 0.33 | 0.28 | 88 | 1008.0 |
| 20260509165048 | 8 | 158 | 4.8 | 11.3 | 0.00 | 0.33 | 0.28 | 88 | 1008.0 |
| 20260509164547 | 8 | 178 | 3.2 | 11.3 | 0.03 | 0.33 | 0.28 | 88 | 1008.0 |
| 20260509164047 | 8 | 187 | 4.8 | 12.9 | 0.03 | 0.33 | 0.28 | 88 | 1008.1 |
| 20260509163548 | 8 | 161 | 4.8 | 12.9 | 0.03 | 0.33 | 0.28 | 88 | 1008.2 |
| 20260509163046 | 8 | 189 | 3.2 | 14.5 | 0.03 | 0.33 | 0.28 | 89 | 1008.2 |
| 20260509162545 | 8 | 155 | 6.4 | 14.5 | 0.03 | 0.33 | 0.28 | 88 | 1008.4 |
| 20260509162046 | 8 | 147 | 4.8 | 14.5 | 0.03 | 0.33 | 0.28 | 89 | 1008.4 |
| 20260509161555 | 8 | 146 | 9.7 | 14.5 | 0.03 | 0.33 | 0.28 | 89 | 1008.4 |
| 20260509161043 | 8 | 170 | 6.4 | 12.9 | 0.03 | 0.33 | 0.28 | 89 | 1008.5 |
| 20260509160544 | 8 | 113 | 4.8 | 14.5 | 0.03 | 0.33 | 0.28 | 89 | 1008.6 |
| 20260509160042 | 9 | 194 | 3.2 | 14.5 | 0.03 | 0.33 | 0.28 | 90 | 1008.6 |
| 20260509155540 | 8 | 167 | 4.8 | 14.5 | 0.03 | 0.33 | 0.28 | 90 | 1008.7 |
| 20260509155040 | 8 | 136 | 6.4 | 11.3 | 0.03 | 0.33 | 0.28 | 90 | 1008.8 |
| 20260509154546 | 8 | 169 | 1.6 | 12.9 | 0.00 | 0.30 | 0.25 | 90 | 1008.8 |
| 20260509154038 | 8 | 191 | 4.8 | 12.9 | 0.03 | 0.30 | 0.25 | 91 | 1009.0 |
| 20260509153539 | 8 | 136 | 6.4 | 12.9 | 0.03 | 0.30 | 0.25 | 91 | 1008.8 |
| 20260509153052 | 8 | 130 | 6.4 | 11.3 | 0.03 | 0.30 | 0.25 | 91 | 1009.0 |
| 20260509152535 | 8 | 139 | 3.2 | 11.3 | 0.05 | 0.30 | 0.25 | 91 | 1009.0 |
| 20260509152035 | 8 | 128 | 6.4 | 12.9 | 0.05 | 0.30 | 0.25 | 91 | 1009.1 |
| 20260509151534 | 8 | 130 | 3.2 | 12.9 | 0.05 | 0.30 | 0.25 | 91 | 1009.0 |
| 20260509151033 | 8 | 126 | 4.8 | 12.9 | 0.08 | 0.30 | 0.25 | 91 | 1009.0 |
| 20260509150532 | 8 | 141 | 3.2 | 12.9 | 0.08 | 0.30 | 0.25 | 91 | 1009.1 |
| 20260509150032 | 8 | 133 | 4.8 | 12.9 | 0.10 | 0.30 | 0.25 | 91 | 1009.1 |
| 20260509145531 | 7 | 146 | 3.2 | 12.9 | 0.13 | 0.33 | 0.25 | 91 | 1009.1 |
| 20260509145030 | 7 | 166 | 3.2 | 11.3 | 0.13 | 0.33 | 0.25 | 91 | 1009.1 |
| 20260509144529 | 7 | 146 | 4.8 | 11.3 | 0.13 | 0.33 | 0.25 | 91 | 1009.1 |
| 20260509144028 | 7 | 156 | 3.2 | 12.9 | 0.10 | 0.30 | 0.23 | 91 | 1009.2 |
| 20260509143527 | 7 | 142 | 4.8 | 14.5 | 0.10 | 0.30 | 0.23 | 91 | 1009.2 |
| 20260509143028 | 7 | 130 | 8.0 | 14.5 | 0.10 | 0.30 | 0.23 | 91 | 1009.2 |
| 20260509142525 | 7 | 139 | 3.2 | 11.3 | 0.10 | 0.28 | 0.20 | 91 | 1009.3 |
| 20260509142024 | 7 | 147 | 4.8 | 11.3 | 0.10 | 0.28 | 0.20 | 90 | 1009.3 |
| 20260509141533 | 7 | 115 | 4.8 | 12.9 | 0.10 | 0.28 | 0.20 | 91 | 1009.3 |
| 20260509141024 | 7 | 135 | 3.2 | 9.7 | 0.10 | 0.25 | 0.18 | 90 | 1009.2 |
| 20260509140523 | 7 | 152 | 1.6 | 11.3 | 0.10 | 0.25 | 0.18 | 90 | 1009.2 |
| 20260509140022 | 7 | 139 | 6.4 | 11.3 | 0.08 | 0.23 | 0.15 | 90 | 1009.2 |
| 20260509135522 | 7 | 111 | 3.2 | 8.0 | 0.05 | 0.20 | 0.13 | 90 | 1009.2 |
| 20260509135021 | 7 | 143 | 3.2 | 11.3 | 0.08 | 0.20 | 0.13 | 90 | 1009.2 |
| 20260509134520 | 7 | 156 | 4.8 | 11.3 | 0.08 | 0.20 | 0.13 | 90 | 1009.2 |
| 20260509134023 | 7 | 155 | 3.2 | 9.7 | 0.08 | 0.20 | 0.13 | 90 | 1009.2 |
| 20260509133520 | 7 | 128 | 3.2 | 9.7 | 0.08 | 0.20 | 0.13 | 90 | 1009.4 |
| 20260509133022 | 7 | 124 | 1.6 | 8.0 | 0.10 | 0.20 | 0.13 | 90 | 1009.3 |
| 20260509132521 | 7 | 140 | 0.0 | 4.8 | 0.08 | 0.18 | 0.10 | 90 | 1009.3 |
| 20260509132018 | 6 | 148 | 1.6 | 4.8 | 0.08 | 0.18 | 0.10 | 90 | 1009.3 |
| 20260509131521 | 6 | 94 | 1.6 | 4.8 | 0.08 | 0.18 | 0.10 | 90 | 1009.3 |
| 20260509131016 | 6 | 94 | 1.6 | 4.8 | 0.05 | 0.15 | 0.08 | 89 | 1009.3 |
| 20260509130516 | 6 | 96 | 1.6 | 4.8 | 0.05 | 0.15 | 0.08 | 89 | 1009.4 |
| 20260509130015 | 6 | 88 | 1.6 | 6.4 | 0.05 | 0.15 | 0.08 | 89 | 1009.4 |
| 20260509125516 | 6 | 88 | 3.2 | 6.4 | 0.05 | 0.15 | 0.08 | 88 | 1009.6 |
| 20260509125016 | 6 | 98 | 1.6 | 6.4 | 0.05 | 0.13 | 0.05 | 89 | 1009.6 |
| 20260509124513 | 6 | 144 | 3.2 | 6.4 | 0.05 | 0.13 | 0.05 | 88 | 1009.6 |
| 20260509124014 | 6 | 109 | 1.6 | 8.0 | 0.05 | 0.13 | 0.05 | 88 | 1009.7 |
| 20260509123513 | 6 | 128 | 0.0 | 8.0 | 0.05 | 0.13 | 0.05 | 88 | 1009.8 |
| 20260509123012 | 6 | 128 | 1.6 | 8.0 | 0.03 | 0.10 | 0.03 | 88 | 1009.8 |
| 20260509122508 | 6 | 138 | 4.8 | 8.0 | 0.03 | 0.10 | 0.03 | 88 | 1009.9 |
| 20260509122010 | 6 | 136 | 3.2 | 11.3 | 0.03 | 0.10 | 0.03 | 87 | 1009.9 |
| 20260509121508 | 6 | 153 | 3.2 | 11.3 | 0.03 | 0.10 | 0.03 | 87 | 1010.0 |
| 20260509121010 | 6 | 149 | 3.2 | 12.9 | 0.03 | 0.10 | 0.03 | 87 | 1010.1 |
| 20260509120506 | 6 | 142 | 4.8 | 14.5 | 0.03 | 0.10 | 0.03 | 87 | 1010.1 |
| 20260509120007 | 6 | 133 | 6.4 | 12.9 | 0.03 | 0.10 | 0.03 | 86 | 1010.0 |
| 20260509115506 | 6 | 143 | 6.4 | 11.3 | 0.03 | 0.10 | 0.03 | 86 | 1010.1 |
| 20260509115010 | 5 | 134 | 3.2 | 9.7 | 0.00 | 0.08 | 0.00 | 85 | 1010.1 |
| 20260509114506 | 5 | 98 | 1.6 | 6.4 | 0.00 | 0.08 | 0.00 | 84 | 1010.1 |
| 20260509114006 | 5 | 99 | 3.2 | 6.4 | 0.00 | 0.08 | 0.00 | 83 | 1010.0 |
| 20260509113506 | 6 | 103 | 3.2 | 12.9 | 0.00 | 0.08 | 0.00 | 84 | 1010.1 |
| 20260509113005 | 6 | 139 | 4.8 | 12.9 | 0.00 | 0.08 | 0.00 | 84 | 1010.0 |
| 20260509112505 | 6 | 146 | 3.2 | 12.9 | 0.00 | 0.08 | 0.00 | 84 | 1010.0 |
| 20260509112006 | 6 | 132 | 4.8 | 8.0 | 0.00 | 0.08 | 0.00 | 84 | 1010.1 |
| 20260509111504 | 6 | 117 | 4.8 | 11.3 | 0.00 | 0.08 | 0.00 | 84 | 1010.0 |
| 20260509111003 | 6 | 140 | 4.8 | 11.3 | 0.00 | 0.08 | 0.00 | 84 | 1010.1 |
| 20260509110506 | 6 | 138 | 4.8 | 12.9 | 0.00 | 0.08 | 0.00 | 84 | 1010.1 |
| 20260509110004 | 6 | 135 | 3.2 | 14.5 | 0.00 | 0.08 | 0.00 | 84 | 1010.0 |
| 20260509105502 | 5 | 139 | 6.4 | 14.5 | 0.00 | 0.08 | 0.00 | 84 | 1009.8 |
| 20260509105002 | 5 | 142 | 6.4 | 12.9 | 0.00 | 0.08 | 0.00 | 83 | 1009.8 |
| 20260509104503 | 5 | 146 | 6.4 | 12.9 | 0.00 | 0.08 | 0.00 | 83 | 1009.8 |
| 20260509104001 | 5 | 133 | 6.4 | 12.9 | 0.00 | 0.08 | 0.00 | 83 | 1009.7 |
| 20260509103501 | 5 | 150 | 6.4 | 12.9 | 0.00 | 0.08 | 0.00 | 82 | 1009.8 |
| 20260509103108 | 5 | 146 | 4.8 | 12.9 | 0.00 | 0.08 | 0.00 | 82 | 1009.7 |
| 20260509102558 | 5 | 135 | 3.2 | 11.3 | 0.00 | 0.08 | 0.00 | 81 | 1009.7 |
| 20260509102057 | 4 | 150 | 3.2 | 8.0 | 0.00 | 0.08 | 0.00 | 80 | 1009.7 |
| 20260509101615 | 4 | 101 | 0.0 | 0.0 | 0.00 | 0.08 | 0.00 | 77 | 1009.6 |
| 20260509101055 | 3 | 81 | 0.0 | 0.0 | 0.00 | 0.08 | 0.00 | 76 | 1009.5 |
| 20260509100556 | 3 | 81 | 0.0 | 3.2 | 0.00 | 0.08 | 0.00 | 76 | 1009.6 |
| 20260509100059 | 3 | 85 | 0.0 | 4.8 | 0.00 | 0.08 | 0.00 | 76 | 1009.4 |
| 20260509095554 | 3 | 92 | 0.0 | 4.8 | 0.00 | 0.10 | 0.00 | 75 | 1009.5 |
| 20260509095053 | 3 | 92 | 0.0 | 8.0 | 0.00 | 0.10 | 0.00 | 76 | 1009.7 |
| 20260509094559 | 3 | 90 | 0.0 | 11.3 | 0.00 | 0.10 | 0.00 | 77 | 1009.7 |
| 20260509094052 | 3 | 115 | 4.8 | 11.3 | 0.00 | 0.10 | 0.00 | 76 | 1009.4 |
| 20260509093552 | 3 | 123 | 4.8 | 9.7 | 0.00 | 0.10 | 0.00 | 78 | 1009.7 |
| 20260509093051 | 3 | 120 | 3.2 | 4.8 | 0.00 | 0.10 | 0.00 | 80 | 1009.8 |
| 20260509092550 | 3 | 123 | 1.6 | 4.8 | 0.00 | 0.10 | 0.00 | 80 | 1009.8 |
| 20260509092052 | 3 | 123 | 1.6 | 4.8 | 0.00 | 0.10 | 0.00 | 80 | 1010.0 |
| 20260509091554 | 3 | 123 | 0.0 | 4.8 | 0.00 | 0.10 | 0.00 | 80 | 1009.9 |
| 20260509091049 | 3 | 123 | 1.6 | 4.8 | 0.00 | 0.10 | 0.00 | 80 | 1009.9 |
| 20260509090549 | 3 | 123 | 3.2 | 4.8 | 0.00 | 0.10 | 0.00 | 81 | 1010.0 |
| 20260509090055 | 2 | 124 | 1.6 | 4.8 | 0.00 | 0.10 | 0.00 | 82 | 1010.1 |
| 20260509085548 | 2 | 126 | 1.6 | 6.4 | 0.00 | 0.15 | 0.00 | 83 | 1010.1 |
| 20260509085048 | 2 | 128 | 3.2 | 9.7 | 0.00 | 0.15 | 0.00 | 84 | 1010.0 |
| 20260509084558 | 2 | 87 | 3.2 | 9.7 | 0.00 | 0.15 | 0.00 | 84 | 1010.0 |
| 20260509084048 | 2 | 103 | 3.2 | 11.3 | 0.00 | 0.15 | 0.00 | 84 | 1010.1 |
| 20260509083547 | 2 | 125 | 4.8 | 11.3 | 0.00 | 0.15 | 0.00 | 84 | 1010.1 |
| 20260509083059 | 2 | 117 | 3.2 | 9.7 | 0.00 | 0.15 | 0.00 | 84 | 1010.2 |
| 20260509082546 | 2 | 123 | 4.8 | 11.3 | 0.00 | 0.15 | 0.00 | 84 | 1010.3 |
| 20260509082050 | 2 | 105 | 4.8 | 9.7 | 0.00 | 0.15 | 0.00 | 84 | 1010.4 |
| 20260509081546 | 2 | 128 | 3.2 | 9.7 | 0.00 | 0.15 | 0.00 | 84 | 1010.4 |
| 20260509081045 | 2 | 111 | 3.2 | 9.7 | 0.00 | 0.15 | 0.00 | 84 | 1010.4 |
| 20260509080548 | 2 | 128 | 3.2 | 6.4 | 0.00 | 0.15 | 0.00 | 84 | 1010.3 |
| 20260509080049 | 2 | 132 | 3.2 | 6.4 | 0.00 | 0.15 | 0.00 | 84 | 1010.4 |
| 20260509075544 | 2 | 115 | 3.2 | 4.8 | 0.00 | 0.15 | 0.00 | 84 | 1010.3 |
| 20260509075044 | 1 | 115 | 3.2 | 4.8 | 0.00 | 0.15 | 0.00 | 84 | 1010.3 |
| 20260509074602 | 1 | 115 | 1.6 | 4.8 | 0.00 | 0.15 | 0.00 | 84 | 1010.3 |
| 20260509074043 | 1 | 109 | 3.2 | 6.4 | 0.00 | 0.15 | 0.00 | 84 | 1010.2 |
| 20260509073546 | 1 | 109 | 3.2 | 9.7 | 0.00 | 0.15 | 0.00 | 84 | 1010.2 |
| 20260509073100 | 1 | 107 | 4.8 | 9.7 | 0.00 | 0.15 | 0.00 | 85 | 1010.1 |
| 20260509072542 | 1 | 101 | 4.8 | 6.4 | 0.00 | 0.15 | 0.00 | 86 | 1010.1 |
| 20260509072040 | 1 | 101 | 4.8 | 9.7 | 0.00 | 0.15 | 0.00 | 86 | 1010.1 |
| 20260509071548 | 1 | 101 | 4.8 | 6.4 | 0.00 | 0.15 | 0.00 | 86 | 1010.1 |